Date String (YYYY-MM-DD hh:mm:ss) UTC,Instrument flags,absolute air pressure of the measurement (hPa),sample flow rate (lpm),inlet stack bypass flow (lpm),air temperature of the measurement (°C),ambient temperature measured by the external sensor (°C),aerosol sample conditioner tube jacket temperature (°C),OPC LED temperature (°C),internal box temperature (°C),relative humidity of the measurement (%),span deviation,mass concentration of particles derived from Lorenz-Mie calculation of OPC scattering (μg/m³),mass concentration of particles derived from Lorenz-Mie calculation of OPC scattering (μg/m³),mass concentration of particles derived from Lorenz-Mie calculation of OPC scattering (μg/m³)
DateTimeUTC,F1_M11,P_M11,Q1_M11,Q2_M11,T1_M11,T2_M11,T3_M11,T4_M11,T5_M11,U1_M11,ZSPAN_M11,X2_M11,X0_M11,X1_M11
2024-06-10 18:00:00,SystemResetWarning,0828.6,4.99,000.00,029.7,028.7,000.0,037.8,031.3,035.8,0000.8,0010.93,0015.71,0010.29
2024-06-10 18:01:00,SystemResetWarning,0828.6,5.00,000.00,029.4,026.8,000.0,037.9,030.4,036.7,0000.7,0010.91,0016.83,0010.23
2024-06-10 18:02:00,SystemResetWarning,0828.6,5.01,000.00,029.1,026.1,000.0,037.9,030.0,037.9,0000.9,0010.87,0018.09,0010.18
2024-06-10 18:03:00,SystemResetWarning,0828.5,5.00,000.00,028.9,026.4,000.0,037.8,030.0,038.0,0000.1,0010.78,0018.05,0010.09
2024-06-10 18:04:00,SystemResetWarning,0828.5,4.99,000.00,028.9,026.8,000.0,037.7,030.2,037.8,-000.3,0010.72,0017.89,0010.03
2024-06-10 18:05:00,SystemResetWarning,0828.6,5.00,000.00,029.0,027.2,000.0,037.6,030.5,038.1,0000.0,0010.68,0017.65,0010.00
2024-06-10 18:06:00,SystemResetWarning,0828.6,5.00,000.00,029.0,027.6,000.0,037.6,030.7,038.1,-000.2,0010.66,0017.27,0009.98
2024-06-10 18:07:00,SystemResetWarning,0828.5,5.00,000.00,029.1,027.9,000.0,037.6,030.8,037.7,-000.1,0010.68,0017.23,0009.96
2024-06-10 18:08:00,SystemResetWarning,0828.5,5.00,000.00,029.2,028.2,000.0,037.5,031.0,038.2,-000.1,0010.71,0017.20,0009.94
2024-06-10 18:09:00,SystemResetWarning,0828.5,5.00,000.00,029.2,028.4,000.0,037.6,031.1,039.1,0000.0,0010.74,0017.18,0009.96
2024-06-10 18:10:00,SystemResetWarning,0828.5,5.00,000.00,029.3,028.7,000.0,037.6,031.2,038.7,-000.5,0010.76,0016.97,0009.96
2024-06-10 18:11:00,SystemResetWarning,0828.5,5.01,000.00,029.4,028.8,000.0,037.6,031.3,037.7,0000.0,0010.79,0016.88,0009.96
2024-06-10 18:12:00,SystemResetWarning,0828.4,5.00,000.00,029.5,029.0,000.0,037.6,031.4,036.8,0000.1,0010.76,0015.99,0009.92
2024-06-10 18:13:00,SystemResetWarning,0828.4,4.99,000.00,029.5,029.1,000.0,037.7,031.4,036.2,-000.1,0010.63,0014.48,0009.85
2024-06-10 18:14:00,SystemResetWarning,0828.4,5.00,000.00,029.6,029.2,000.0,037.7,031.5,035.7,0000.5,0010.53,0014.29,0009.78
2024-06-10 18:15:00,SystemResetWarning,0828.4,4.99,000.00,029.7,029.2,000.0,037.8,031.5,036.1,0001.1,0010.46,0014.26,0009.74
2024-06-10 18:16:00,SystemResetWarning,0828.4,4.99,000.00,029.5,027.6,000.0,037.8,030.8,035.8,0001.0,0010.45,0014.29,0009.69
2024-06-10 18:17:00,SystemResetWarning,0828.4,5.01,000.00,029.2,026.2,000.0,037.8,030.1,036.6,0000.0,0010.39,0014.24,0009.64
2024-06-10 18:18:00,SystemResetWarning,0828.4,5.01,000.00,029.0,026.2,000.0,037.8,030.0,036.6,0000.0,0010.31,0014.18,0009.58
2024-06-10 18:19:00,SystemResetWarning,0828.4,4.98,000.00,028.9,026.6,000.0,037.7,030.2,036.5,0000.0,0010.26,0014.29,0009.53
2024-06-10 18:20:00,SystemResetWarning,0828.4,5.00,000.00,029.0,027.0,000.0,037.6,030.4,035.8,0000.6,0010.17,0014.22,0009.47
2024-06-10 18:21:00,SystemResetWarning,0828.4,5.01,000.00,029.0,027.4,000.0,037.6,030.6,035.9,0001.0,0010.08,0014.12,0009.40
2024-06-10 18:22:00,SystemResetWarning,0828.4,5.01,000.00,029.1,027.8,000.0,037.5,030.8,036.3,0000.0,0010.02,0013.93,0009.35
2024-06-10 18:23:00,SystemResetWarning,0828.4,5.00,000.00,029.1,028.1,000.0,037.5,030.9,036.3,0000.0,0009.99,0013.80,0009.33
2024-06-10 18:24:00,SystemResetWarning,0828.4,4.99,000.00,029.2,028.4,000.0,037.5,031.0,036.4,0000.0,0010.01,0014.02,0009.33
2024-06-10 18:25:00,SystemResetWarning,0828.4,5.00,000.00,029.3,028.6,000.0,037.5,031.1,036.4,0000.0,0010.03,0013.92,0009.33
2024-06-10 18:26:00,SystemResetWarning,0828.4,5.00,000.00,029.3,028.8,000.0,037.6,031.2,037.0,0000.0,0010.02,0014.46,0009.31
2024-06-10 18:27:00,SystemResetWarning,0828.4,5.00,000.00,029.4,028.9,000.0,037.6,031.3,035.7,0000.0,0009.95,0015.12,0009.27
2024-06-10 18:28:00,SystemResetWarning,0828.4,5.00,000.00,029.5,029.1,000.0,037.6,031.4,034.2,0000.0,0009.92,0015.97,0009.19
2024-06-10 18:29:00,SystemResetWarning,0828.4,5.01,000.00,029.6,029.2,000.0,037.7,031.5,033.8,0000.0,0009.86,0016.46,0009.12
2024-06-10 18:30:00,SystemResetWarning,0828.4,5.00,000.00,029.7,029.1,000.0,037.7,031.4,034.2,0000.0,0009.73,0016.20,0009.02
2024-06-10 18:31:00,SystemResetWarning,0828.4,4.98,000.00,029.5,027.5,000.0,037.8,030.6,034.6,0000.0,0009.63,0016.00,0008.94
2024-06-10 18:32:00,SystemResetWarning,0828.3,5.02,000.00,029.1,026.2,000.0,037.8,029.9,035.3,0000.0,0009.53,0016.30,0008.84
2024-06-10 18:33:00,SystemResetWarning,0828.3,4.99,000.00,029.0,026.3,000.0,037.8,029.9,035.3,0000.0,0009.40,0016.85,0008.73
2024-06-10 18:34:00,SystemResetWarning,0828.3,5.00,000.00,028.9,026.7,000.0,037.7,030.1,034.6,0000.0,0009.28,0017.44,0008.62
2024-06-10 18:35:00,SystemResetWarning,0828.3,5.01,000.00,028.9,027.1,000.0,037.6,030.4,033.4,0000.0,0009.17,0017.54,0008.50
2024-06-10 18:36:00,SystemResetWarning,0828.2,5.00,000.00,029.0,027.5,000.0,037.5,030.6,032.0,0000.0,0009.02,0017.59,0008.37
2024-06-10 18:37:00,SystemResetWarning,0828.3,5.00,000.00,029.1,027.9,000.0,037.5,030.8,032.7,0000.0,0008.89,0017.26,0008.24
2024-06-10 18:38:00,SystemResetWarning,0828.2,5.00,000.00,029.1,028.2,000.0,037.5,030.9,033.5,0000.0,0008.77,0016.48,0008.14
2024-06-10 18:39:00,SystemResetWarning,0828.2,5.00,000.00,029.2,028.4,000.0,037.5,031.0,033.2,0000.0,0008.64,0015.88,0008.07
2024-06-10 18:40:00,SystemResetWarning,0828.2,5.00,000.00,029.3,028.6,000.0,037.5,031.1,033.5,0000.0,0008.56,0015.54,0008.01
2024-06-10 18:41:00,SystemResetWarning,0828.2,5.00,000.00,029.4,028.8,000.0,037.6,031.2,034.0,0000.0,0008.54,0015.60,0007.98
2024-06-10 18:42:00,SystemResetWarning,0828.2,5.00,000.00,029.4,029.0,000.0,037.6,031.3,034.4,0000.0,0008.53,0015.64,0007.97
2024-06-10 18:43:00,SystemResetWarning,0828.1,5.01,000.00,029.5,029.1,000.0,037.6,031.4,033.5,0000.0,0008.59,0015.52,0007.99
2024-06-10 18:44:00,SystemResetWarning,0828.1,5.01,000.00,029.6,029.2,000.0,037.7,031.5,033.0,0000.0,0008.64,0014.81,0008.04
2024-06-10 18:45:00,SystemResetWarning,0828.0,4.99,000.00,029.6,029.1,000.0,037.7,031.4,033.5,0000.0,0008.67,0014.72,0008.05
2024-06-10 18:46:00,SystemResetWarning,0828.1,4.98,000.00,029.4,027.4,000.0,037.8,030.5,034.8,0000.0,0008.73,0014.14,0008.09
2024-06-10 18:47:00,SystemResetWarning,0828.0,5.01,000.00,029.1,026.1,000.0,037.8,029.9,035.6,0000.0,0008.83,0014.25,0008.16
2024-06-10 18:48:00,SystemResetWarning,0827.9,5.01,000.00,028.9,026.2,000.0,037.7,029.9,034.5,0000.0,0008.92,0014.05,0008.25
2024-06-10 18:49:00,SystemResetWarning,0828.0,4.99,000.00,028.9,026.6,000.0,037.6,030.1,034.2,0000.0,0009.00,0013.70,0008.31
2024-06-10 18:50:00,SystemResetWarning,0828.1,4.99,000.00,028.9,027.1,000.0,037.5,030.4,033.8,0000.0,0009.03,0013.66,0008.33
2024-06-10 18:51:00,SystemResetWarning,0828.1,5.01,000.00,029.0,027.5,000.0,037.5,030.6,033.1,0000.0,0009.06,0013.46,0008.32
2024-06-10 18:52:00,SystemResetWarning,0828.1,5.00,000.00,029.1,027.8,000.0,037.5,030.8,034.1,0000.0,0009.12,0013.68,0008.32
2024-06-10 18:53:00,SystemResetWarning,0828.1,5.00,000.00,029.1,028.1,000.0,037.5,030.9,034.4,0000.0,0009.18,0014.10,0008.33
2024-06-10 18:54:00,SystemResetWarning,0828.1,4.99,000.00,029.2,028.4,000.0,037.5,031.0,034.3,0000.0,0009.19,0014.03,0008.35
2024-06-10 18:55:00,SystemResetWarning,0828.1,5.00,000.00,029.3,028.6,000.0,037.5,031.1,034.0,0000.0,0009.22,0014.06,0008.35
2024-06-10 18:56:00,SystemResetWarning,0828.1,5.00,000.00,029.4,028.8,000.0,037.5,031.2,033.8,0000.0,0009.24,0013.75,0008.38
2024-06-10 18:57:00,SystemResetWarning,0828.1,5.00,000.00,029.4,028.9,000.0,037.6,031.3,034.9,0000.0,0009.22,0013.97,0008.39
2024-06-10 18:58:00,SystemResetWarning,0828.1,5.00,000.00,029.5,029.1,000.0,037.6,031.4,033.3,0000.0,0009.21,0014.12,0008.38
2024-06-10 18:59:00,SystemResetWarning,0828.1,4.99,000.00,029.5,028.8,000.0,037.7,031.2,034.0,0000.0,0009.17,0014.30,0008.33
